Temperature
20 20 20 19 18 19 20 21 21 22 22 22 22 21 20 19 19 18 18 18 19 19 19 19 19 19 19 19 19 19 19 19 19 19 19 19 19 19 19 19 19 19 19 19 19 19 19 19 19
21 20 20 19 19 20 21 21 21 23 23 22 21 20 20 19 19 18 18 18 18 19 19 19 19 19 19 19 19 19 19 19 19 19 19 19 19 19 19 19 19 19 19 19 19 19 19 19 19
21 20 20 18 19 20 21 21 22 23 23 22 20 19 19 19 19 18 18 18 18 19 18 19 19 19 19 19 19 19 19 19 19 19 19 19 19 19 19 19 19 19 19 19 19 19 19 19 19
21 20 20 19 20 21 21 22 23 23 23 22 20 19 18 19 19 19 18 18 19 18 18 18 18 18 18 18 18 18 18 19 19 19 19 19 19 19 19 19 19 19 19 19 19 19 19 19 19
21 21 19 20 21 21 21 22 23 22 22 21 20 18 18 18 19 19 19 19 19 18 18 18 18 18 18 18 18 18 18 18 18 18 18 18 18 18 18 18 19 19 19 19 19 19 19 19 19
22 20 20 20 21 21 21 22 22 22 21 21 19 18 18 19 19 19 19 18 18 18 18 18 18 18 18 18 17 17 17 17 18 18 18 18 18 18 18 18 18 18 18 18 18 19 19 19 19
21 19 20 20 20 21 22 22 22 21 21 21 20 18 18 19 19 19 18 18 18 18 18 18 18 17 17 17 17 17 17 17 17 17 17 18 18 18 18 18 18 18 18 18 18 18 18 18 19
23 19 21 20 21 21 22 23 22 22 21 21 20 19 18 19 19 19 18 18 18 18 17 17 17 17 17 17 17 17 17 16 16 16 17 17 17 17 17 17 18 18 18 18 18 18 18 18 18
23 19 20 21 21 21 22 22 22 22 21 21 20 20 19 19 19 19 18 18 18 18 17 17 17 17 17 16 16 16 16 16 16 16 16 16 16 17 17 17 17 17 18 18 18 18 18 18 18
21 19 21 22 21 21 22 22 22 21 20 20 20 20 19 19 19 19 18 18 18 17 17 17 17 17 16 16 16 16 16 16 16 16 16 16 16 16 16 17 17 17 17 17 18 18 18 18 18
21 20 21 22 23 23 22 22 22 20 19 20 20 20 19 19 19 19 18 18 18 17 17 17 16 16 16 16 16 15 15 15 15 15 15 15 15 15 16 16 16 17 17 17 17 17 18 18 18
21 21 22 22 23 23 22 22 21 21 21 21 20 20 20 19 19 19 18 18 18 17 17 16 16 16 16 16 15 15 15 15 15 15 15 15 15 15 15 15 16 16 16 17 17 17 17 18 18
21 21 22 23 23 23 22 22 21 21 21 21 20 20 20 19 19 19 18 18 18 17 17 16 16 16 15 15 15 15 15 15 15 15 15 15 15 15 15 15 15 16 16 16 17 17 17 17 17
21 21 21 22 22 22 22 21 21 21 21 21 20 20 20 20 19 19 18 18 17 17 16 16 16 16 15 15 15 15 14 14 14 14 14 14 14 14 15 15 15 15 15 16 16 16 17 17 17
21 21 21 21 21 22 22 21 20 21 21 21 21 20 20 20 19 19 18 18 17 17 16 16 15 15 15 15 14 14 14 14 14 14 14 14 14 14 14 15 15 15 15 15 16 16 16 17 17
20 20 20 20 21 21 21 20 20 21 21 21 20 20 20 19 19 18 18 17 17 16 16 16 15 15 15 15 14 14 14 14 14 14 14 14 14 14 14 14 14 14 15 15 15 16 16 16 16
20 19 20 20 21 20 20 20 20 21 21 20 20 20 20 19 18 18 18 17 17 16 16 15 15 15 15 14 14 14 14 14 14 13 13 13 13 14 14 14 14 14 14 15 15 15 15 16 16
20 20 20 20 21 20 20 19 20 21 21 21 20 20 19 19 18 18 17 17 17 16 16 15 15 14 14 14 14 14 14 14 13 13 13 13 13 13 13 13 14 14 14 14 14 15 15 15 16
20 20 20 21 22 21 20 20 19 20 20 20 20 20 19 19 18 18 17 17 16 16 15 15 15 14 14 14 14 14 14 13 13 13 13 13 13 13 13 13 13 13 14 14 14 14 15 15 15
21 20 21 21 22 21 20 20 20 20 20 20 20 20 19 19 18 17 17 17 16 16 15 15 14 14 14 14 13 13 13 13 13 13 13 13 13 13 13 13 13 13 13 14 14 14 14 15 15
21 20 21 21 22 22 21 19 19 20 20 20 20 20 20 19 18 17 17 17 16 16 15 15 14 14 14 13 13 13 13 13 13 13 13 13 13 13 13 13 13 13 13 13 14 14 14 14 14
21 22 23 22 21 19 21 18 19 19 19 19 19 19 19 19 18 18 17 17 16 15 15 14 14 14 14 13 13 13 13 13 13 13 13 13 13 13 13 13 13 13 13 13 13 13 14 14 14
21 23 23 22 21 20 19 18 18 19 18 18 18 19 19 19 18 18 17 17 16 15 15 14 14 14 13 13 13 13 13 13 13 13 13 13 13 13 12 12 13 13 13 13 13 13 13 14 14
22 21 20 18 18 19 20 18 18 17 18 18 18 19 19 19 18 18 17 17 16 15 15 14 14 14 13 13 13 13 13 13 13 13 13 13 13 12 12 12 12 12 13 13 13 13 13 13 14
21 19 18 19 17 18 19 19 18 19 19 19 18 19 19 19 18 18 17 17 16 15 15 14 14 14 13 13 13 13 13 13 12 12 12 12 12 12 12 12 12 12 12 13 13 13 13 13 13
21 19 18 19 19 18 19 19 18 20 20 21 20 20 19 19 18 18 17 17 16 16 15 15 14 14 13 13 13 13 13 12 12 12 12 12 12 12 12 12 12 12 12 13 13 13 13 13 13
22 20 18 17 19 18 18 19 20 20 19 19 19 19 19 19 18 18 17 17 16 16 15 15 14 14 14 13 13 13 13 13 12 12 12 12 12 12 12 12 12 12 12 12 12 13 13 13 13
22 20 17 18 18 18 19 19 17 19 18 18 18 19 19 19 18 18 17 17 16 16 15 15 14 14 14 13 13 13 13 13 13 12 12 12 12 12 12 12 12 12 12 12 12 12 13 13 13
23 22 18 16 16 17 18 18 19 18 18 18 18 20 20 19 19 18 18 17 17 16 15 15 15 14 14 14 13 13 13 13 13 13 12 12 12 12 12 12 12 12 12 12 12 12 12 13 13
22 21 18 18 18 16 16 17 19 19 19 19 20 20 20 19 19 18 18 17 17 16 16 15 15 14 14 14 14 13 13 13 13 13 13 12 12 12 12 12 12 12 12 12 12 12 12 12 13
Wind_Speed
11 8 4 2 1 2 1 2 1 2 4 6 10 11 9 6 5 5 1 3 10 8 9 10 9 8 7 6 5 4 4 3 3 2 3 3 3 3 2 2 2 2 2 2 2 2 2 3 3
7 4 2 1 2 2 1 2 2 3 6 7 9 9 8 6 5 4 2 6 9 8 9 9 9 8 7 6 5 4 4 3 3 3 3 3 3 3 3 3 3 2 2 2 1 1 1 1 1
5 3 2 1 1 3 2 3 3 6 8 6 6 6 5 4 3 2 3 8 8 7 8 8 9 8 6 5 4 3 3 3 3 3 3 4 4 4 5 5 5 4 4 4 3 3 2 1 1
3 2 2 2 2 2 2 2 3 6 7 6 7 6 4 3 2 4 6 9 8 6 7 7 7 6 5 4 3 2 2 2 2 3 4 4 5 6 6 6 6 6 6 6 5 5 4 4 3
2 3 3 1 1 1 2 3 5 6 4 5 7 6 3 1 5 6 7 8 8 6 6 6 6 5 4 3 2 2 1 2 2 3 3 4 5 7 7 8 8 7 7 7 7 7 6 6 5
2 3 3 1 1 2 3 4 7 8 6 7 7 6 2 1 4 5 6 6 6 6 5 5 5 4 3 2 1 1 2 2 3 4 5 5 6 6 7 8 9 9 9 9 9 9 8 8 7
3 3 2 4 2 1 2 2 5 6 5 4 6 6 3 2 4 5 6 5 5 4 4 2 1 1 1 1 2 3 4 4 5 5 6 6 7 7 8 8 9 9 10 10 10 10 10 9 9
4 3 2 2 3 2 2 2 4 5 4 3 4 6 4 4 4 6 6 5 4 3 2 2 0 1 3 4 4 5 5 6 7 7 7 7 7 8 9 9 10 10 10 10 11 11 12 11 11
3 4 2 4 6 4 4 4 3 4 6 5 4 5 6 7 7 7 5 3 3 3 1 1 1 1 3 4 4 5 6 7 7 7 8 7 7 7 8 9 10 10 10 11 12 12 12 12 11
3 3 4 4 6 5 6 6 6 4 6 5 5 5 7 7 7 7 6 4 3 2 1 1 1 2 3 3 3 5 5 7 7 7 7 7 6 6 6 7 8 9 10 11 12 13 12 11 8
1 3 2 1 4 5 5 4 4 8 3 6 8 8 7 7 7 7 5 5 4 2 1 1 1 2 3 2 3 3 4 5 6 6 6 6 5 5 5 5 6 7 8 7 7 8 7 6 6
1 1 1 3 4 4 5 4 4 5 7 9 10 9 7 8 7 7 6 5 3 3 2 1 1 2 3 3 3 2 2 3 3 5 5 3 2 2 3 2 4 4 4 3 4 3 4 5 6
2 1 2 3 4 4 5 5 5 5 8 9 10 9 9 8 7 6 7 6 5 4 2 1 1 2 2 2 3 3 2 3 4 4 5 3 1 3 3 2 3 3 4 3 2 3 4 4 4
5 2 1 2 3 3 5 4 6 7 9 10 10 9 9 9 8 6 6 5 5 4 2 0 2 2 3 2 3 2 3 4 3 3 4 3 1 1 2 3 3 2 3 3 2 3 3 4 3
4 3 1 1 2 2 4 2 6 9 11 10 9 9 8 7 8 8 7 6 6 4 2 1 2 3 3 3 3 3 3 3 2 3 5 4 3 2 1 2 3 3 4 3 2 2 2 3 3
3 3 1 4 3 3 5 5 7 10 11 10 9 8 7 6 7 7 7 6 5 5 3 2 3 3 3 3 3 2 3 3 3 4 4 4 4 3 1 2 3 3 3 2 2 1 2 2 2
2 1 3 4 5 4 5 6 5 9 11 10 9 9 7 6 6 6 6 6 6 5 4 3 3 2 2 3 3 3 3 3 3 3 3 4 4 3 2 2 3 3 2 2 2 1 1 2 2
4 3 3 5 5 6 6 8 6 8 10 10 9 8 7 8 8 7 6 6 6 5 5 3 2 2 2 3 3 4 4 4 3 3 3 4 4 4 2 2 3 2 1 2 2 2 2 2 2
6 4 4 6 6 7 9 9 8 10 8 8 7 7 8 8 6 6 6 6 5 4 4 3 2 2 2 2 2 3 4 4 4 4 4 4 4 3 2 2 3 2 1 2 2 1 2 2 1
4 2 3 4 4 6 6 7 6 9 10 9 10 9 9 8 6 6 5 5 5 4 3 3 2 2 2 1 2 2 3 3 3 4 4 5 4 4 2 2 2 2 2 2 1 0 0 1 1
3 5 5 5 2 1 1 4 1 3 4 5 7 8 9 12 10 8 6 5 5 4 3 3 2 1 2 2 2 3 3 3 4 4 4 4 5 4 3 2 2 2 1 2 2 1 2 1 1
4 7 7 5 2 3 3 1 4 3 4 6 7 7 9 9 9 8 7 6 5 4 3 3 1 1 2 2 3 2 2 2 3 4 4 6 5 4 3 2 2 2 1 2 2 1 1 2 1
8 6 4 2 2 2 0 4 5 3 5 6 7 8 8 9 10 9 8 7 6 5 4 2 1 1 2 3 3 2 2 2 3 4 5 5 5 4 4 2 2 2 2 2 2 1 1 2 2
3 4 6 5 4 2 4 6 5 5 8 7 6 8 8 9 9 8 7 6 4 4 3 2 1 1 2 3 3 2 2 3 4 5 5 5 4 4 5 3 3 2 2 2 2 2 2 2 2
5 6 5 5 4 5 2 4 6 6 7 9 10 10 9 9 9 8 8 7 5 5 3 2 1 1 2 2 2 2 2 2 3 4 4 4 3 3 5 4 3 3 3 2 2 1 1 2 2
4 8 6 4 4 5 3 2 4 2 4 7 8 9 8 9 8 9 9 8 6 6 5 3 2 2 2 2 3 2 2 2 2 3 3 3 3 3 4 4 4 4 3 3 2 1 1 1 2
5 3 7 6 2 1 2 2 4 1 2 5 6 7 8 9 9 9 8 8 7 6 6 5 3 2 2 2 2 2 3 3 3 4 3 3 3 3 4 4 4 4 3 3 2 1 1 0 1
6 7 6 4 2 1 2 3 5 8 8 7 7 8 8 8 8 8 8 7 7 6 5 4 4 3 2 1 1 1 2 3 3 3 4 4 4 4 4 4 4 4 3 3 2 1 1 1 1
2 3 6 5 5 5 2 6 7 11 10 10 10 9 9 9 9 8 7 7 6 5 5 4 3 2 2 1 1 1 2 2 3 3 4 4 4 4 4 4 4 4 3 3 2 1 1 1 1
5 5 7 4 2 4 4 7 6 9 9 9 9 8 8 9 8 8 8 6 5 5 5 5 4 3 3 2 1 1 1 2 3 4 4 4 4 4 4 4 4 4 3 2 2 1 2 1 1
Wind_Direction
185 154 108 91 58 43 15 295 276 12 55 61 75 81 82 62 76 112 239 114 126 139 144 140 144 141 141 141 139 140 148 151 154 159 156 157 160 163 158 147 151 136 117 111 101 77 72 60 48
156 141 119 83 95 82 298 258 88 69 126 118 73 71 74 70 75 95 89 127 128 134 137 136 135 132 134 139 143 146 151 164 178 188 189 192 197 204 211 213 211 204 195 187 182 158 117 91 50
148 164 114 80 121 167 199 225 134 80 85 94 78 55 68 77 78 106 146 138 127 125 128 132 132 133 134 139 147 151 154 170 186 198 208 217 220 224 230 231 230 225 218 216 213 204 194 197 229
144 95 75 96 145 209 177 200 123 98 71 68 100 74 56 43 119 139 137 132 128 127 128 131 130 130 136 144 152 162 176 195 207 212 218 226 230 233 234 235 233 231 227 223 217 212 211 215 231
98 95 75 78 118 24 49 75 78 77 81 85 96 93 81 26 109 123 126 124 127 134 141 134 129 128 128 138 146 163 197 230 243 246 244 246 248 245 240 238 237 235 232 228 222 219 218 220 229
68 78 86 114 70 41 33 60 79 81 97 105 101 110 137 197 135 143 133 134 136 139 143 137 131 129 135 162 186 241 264 264 265 266 263 260 261 262 256 248 244 240 236 232 225 223 224 224 228
135 115 134 150 140 78 124 74 79 90 86 88 118 113 150 221 176 149 137 133 126 124 123 120 126 137 195 243 253 265 280 285 285 280 274 269 267 268 268 263 255 247 240 234 229 227 226 227 228
148 110 98 143 148 180 177 92 104 99 92 71 93 126 165 208 158 123 116 115 115 115 113 120 118 310 302 292 279 286 295 292 291 291 291 288 281 272 270 271 265 252 245 240 235 232 230 229 229
90 81 170 188 171 178 156 112 79 69 83 59 69 129 160 149 122 110 107 91 95 99 96 90 48 350 309 291 284 296 303 307 301 298 297 293 289 280 274 273 269 258 250 246 241 238 234 231 232
90 153 217 195 163 158 152 141 134 92 86 87 92 106 120 125 125 125 128 126 122 113 94 72 56 17 359 346 336 323 314 316 308 298 296 292 283 279 280 277 275 268 262 252 245 240 236 232 230
119 191 199 141 137 139 143 130 111 124 131 165 156 152 140 127 128 129 128 132 144 149 104 64 46 23 16 350 343 335 329 323 322 314 305 299 294 292 289 282 281 282 278 265 252 244 234 223 218
95 295 169 158 131 128 134 123 104 147 174 168 162 155 142 135 141 140 135 136 133 114 101 45 38 28 8 4 341 333 328 317 317 321 325 321 307 299 290 275 277 273 268 254 245 238 236 229 226
139 210 171 157 113 118 115 132 137 153 156 154 145 140 145 148 150 145 135 129 123 107 102 49 52 46 17 8 342 355 326 312 310 322 329 336 319 310 303 291 278 274 270 254 244 237 233 232 230
175 149 127 119 115 132 144 161 139 182 166 157 152 155 160 160 157 142 125 122 120 117 129 97 61 46 39 20 344 327 334 334 341 339 335 338 342 310 313 310 295 279 268 260 242 239 238 234 227
128 115 4 242 170 163 139 216 201 183 168 167 166 167 170 167 150 146 149 145 141 136 109 66 79 47 35 10 346 348 345 353 350 341 338 341 342 334 304 304 303 287 283 273 262 260 249 243 233
97 101 226 259 183 181 145 244 238 174 170 177 177 179 178 164 149 152 155 150 140 120 96 62 54 45 18 0 342 334 342 344 332 332 334 336 331 329 323 308 291 294 301 284 267 253 257 254 243
46 164 230 268 199 178 179 235 236 180 175 182 187 189 178 152 151 159 156 142 134 123 108 83 62 39 7 351 339 332 332 328 323 328 326 320 318 318 318 299 290 307 305 287 274 255 237 250 250
213 215 228 234 211 182 209 236 218 198 185 188 191 190 174 162 171 164 148 138 129 114 104 93 61 28 11 356 348 342 337 326 325 322 309 310 314 312 316 290 298 307 319 305 287 260 254 242 243
180 190 237 242 207 183 221 237 212 199 193 187 188 180 167 170 173 155 148 135 117 100 90 79 52 8 12 358 346 333 321 318 325 319 314 315 314 313 296 296 301 303 284 278 277 249 248 252 194
167 202 254 265 223 192 231 250 224 197 197 186 178 173 163 155 153 159 150 132 123 119 102 83 53 14 353 313 285 270 283 294 299 313 325 326 321 316 304 293 289 285 277 297 293 237 225 250 170
197 184 208 227 283 268 142 338 279 204 180 175 173 168 160 160 164 166 154 145 132 127 119 103 81 28 341 329 331 343 349 337 338 335 331 323 325 322 310 304 301 293 254 264 262 223 177 228 261
225 215 203 199 135 272 152 233 277 202 171 179 178 164 160 160 159 161 158 152 149 154 139 127 118 358 334 349 6 358 350 326 300 303 310 320 328 327 322 323 324 307 282 263 264 222 187 176 208
210 225 212 197 156 326 37 141 276 165 188 202 189 173 166 164 160 163 162 158 156 155 147 143 118 344 337 356 13 16 354 304 306 322 333 335 335 338 339 331 336 328 305 274 271 274 210 184 187
171 52 32 48 74 320 237 151 231 214 201 189 186 179 171 165 162 161 159 151 150 154 147 141 122 318 327 348 5 21 352 337 344 342 340 335 330 330 332 329 333 322 312 291 272 258 227 209 196
85 79 27 10 14 262 244 138 229 236 192 175 177 182 180 172 162 161 162 163 165 168 169 162 158 288 312 332 339 336 331 330 330 321 323 326 327 319 314 324 323 313 307 302 285 257 242 215 200
162 136 152 185 221 279 4 164 257 269 179 164 169 176 178 178 175 175 178 178 180 183 182 181 190 250 293 311 316 320 323 323 315 316 313 315 303 297 308 320 323 321 318 318 313 278 254 214 206
131 149 167 141 178 303 335 349 325 328 165 167 175 177 187 189 186 183 183 183 186 190 196 196 197 232 277 291 310 329 331 333 325 324 329 321 309 315 333 336 335 336 337 335 340 323 284 243 208
142 144 96 108 135 316 314 226 222 219 218 210 197 196 199 191 187 186 186 189 193 195 198 198 196 211 237 263 306 338 330 329 329 337 335 327 324 333 342 341 344 345 343 347 1 345 328 350 292
137 108 106 115 148 151 222 261 225 201 202 201 205 201 194 188 187 187 191 193 191 186 188 199 204 201 214 241 295 348 331 333 344 342 328 324 330 336 341 337 340 345 345 349 13 5 17 24 345
166 169 142 144 200 159 173 261 267 197 197 192 199 200 192 185 184 185 186 186 185 184 189 196 197 196 214 217 206 303 320 340 347 340 333 332 334 338 342 346 348 347 349 351 4 356 13 18 340
Height
1531 1532 1532 1533 1535 1539 1539 1532 1526 1523 1522 1523 1521 1523 1527 1531 1535 1542 1538 1536 1536 1537 1538 1538 1539 1539 1539 1539 1539 1539 1539 1538 1538 1538 1538 1538 1538 1538 1538 1538 1538 1538 1537 1537 1537 1537 1537 1536 1536
1531 1532 1534 1533 1538 1546 1541 1530 1526 1522 1523 1523 1524 1526 1529 1533 1535 1536 1536 1536 1537 1537 1538 1538 1539 1539 1538 1538 1538 1538 1537 1537 1537 1537 1536 1536 1536 1537 1537 1537 1536 1536 1536 1536 1536 1536 1536 1536 1536
1531 1531 1532 1533 1538 1543 1537 1528 1524 1522 1522 1522 1527 1529 1532 1535 1536 1536 1536 1536 1537 1537 1537 1538 1538 1538 1538 1537 1537 1537 1536 1536 1535 1535 1535 1535 1535 1535 1535 1535 1535 1535 1535 1535 1535 1535 1535 1535 1535
1531 1531 1532 1536 1538 1532 1529 1526 1523 1522 1524 1525 1527 1532 1534 1536 1536 1536 1536 1537 1537 1537 1537 1537 1537 1537 1536 1536 1535 1535 1535 1534 1534 1533 1533 1533 1533 1533 1533 1533 1533 1533 1533 1533 1533 1533 1533 1533 1534
1530 1530 1534 1538 1535 1531 1527 1525 1523 1523 1525 1528 1528 1533 1536 1537 1537 1537 1537 1537 1537 1537 1537 1537 1536 1536 1535 1535 1534 1534 1533 1532 1532 1531 1531 1531 1531 1531 1531 1531 1531 1531 1531 1531 1531 1532 1532 1532 1532
1529 1529 1539 1543 1537 1532 1528 1526 1525 1526 1528 1530 1531 1534 1537 1538 1537 1537 1538 1538 1538 1537 1537 1536 1536 1535 1534 1533 1532 1532 1531 1530 1530 1529 1529 1528 1528 1528 1528 1528 1529 1529 1529 1529 1529 1530 1530 1530 1531
1529 1531 1537 1538 1538 1534 1530 1528 1527 1528 1529 1530 1531 1534 1537 1537 1537 1538 1538 1538 1538 1537 1536 1536 1535 1534 1533 1532 1531 1530 1529 1528 1527 1527 1526 1526 1525 1525 1526 1526 1526 1526 1527 1527 1527 1528 1528 1528 1529
1527 1530 1534 1537 1537 1534 1529 1528 1529 1529 1530 1531 1531 1533 1536 1538 1537 1537 1538 1538 1537 1536 1536 1535 1534 1533 1531 1530 1529 1528 1527 1526 1525 1524 1523 1523 1523 1523 1523 1523 1523 1524 1524 1524 1525 1525 1526 1526 1527
1527 1533 1537 1534 1533 1531 1527 1528 1530 1530 1530 1531 1532 1533 1535 1537 1537 1537 1538 1537 1537 1536 1535 1534 1532 1531 1530 1528 1527 1526 1525 1524 1523 1522 1521 1520 1520 1520 1520 1520 1520 1520 1521 1521 1522 1523 1524 1524 1525
1527 1535 1531 1525 1525 1527 1526 1527 1529 1532 1532 1533 1534 1535 1536 1537 1537 1537 1537 1536 1536 1535 1534 1533 1531 1529 1528 1527 1525 1524 1523 1521 1520 1519 1518 1517 1517 1517 1517 1517 1517 1517 1518 1518 1519 1520 1521 1522 1523
1526 1529 1525 1524 1523 1524 1525 1527 1528 1531 1533 1533 1533 1535 1536 1536 1536 1536 1536 1535 1535 1534 1533 1532 1530 1528 1526 1525 1523 1522 1520 1519 1518 1517 1516 1515 1514 1514 1513 1514 1514 1514 1515 1515 1516 1517 1518 1519 1520
1525 1525 1523 1523 1523 1524 1525 1527 1529 1529 1530 1531 1532 1533 1534 1535 1535 1535 1535 1534 1534 1533 1531 1530 1528 1527 1525 1523 1521 1520 1518 1516 1515 1514 1513 1512 1511 1510 1510 1510 1510 1511 1512 1512 1513 1514 1515 1516 1518
1524 1525 1524 1523 1523 1525 1526 1527 1528 1529 1529 1531 1532 1533 1533 1533 1534 1534 1534 1533 1532 1531 1530 1528 1527 1525 1523 1521 1519 1517 1516 1514 1513 1511 1510 1509 1508 1508 1507 1507 1507 1507 1508 1509 1509 1511 1512 1513 1515
1522 1523 1524 1523 1523 1524 1526 1527 1527 1528 1529 1530 1531 1531 1532 1532 1532 1532 1532 1532 1531 1530 1528 1527 1525 1524 1522 1520 1517 1515 1513 1512 1510 1509 1508 1507 1506 1505 1504 1504 1504 1504 1505 1505 1506 1507 1509 1510 1511
1521 1524 1525 1524 1523 1524 1526 1528 1525 1525 1527 1528 1529 1530 1530 1530 1530 1531 1531 1530 1530 1528 1527 1526 1524 1522 1520 1518 1516 1514 1512 1510 1508 1507 1505 1504 1503 1502 1501 1501 1501 1501 1501 1502 1503 1504 1505 1506 1508
1523 1528 1532 1525 1523 1523 1528 1532 1522 1523 1525 1526 1527 1528 1528 1529 1530 1530 1530 1529 1528 1527 1526 1525 1523 1521 1518 1516 1514 1512 1510 1508 1506 1504 1503 1501 1500 1499 1499 1498 1498 1498 1498 1499 1500 1501 1502 1503 1505
1528 1534 1533 1527 1521 1522 1525 1527 1520 1521 1522 1524 1525 1526 1527 1528 1529 1529 1529 1528 1527 1526 1525 1523 1521 1519 1517 1515 1513 1511 1508 1506 1504 1502 1501 1499 1498 1497 1496 1495 1495 1495 1495 1496 1497 1498 1499 1500 1501
1533 1532 1530 1527 1519 1521 1524 1522 1518 1520 1521 1522 1523 1524 1525 1526 1527 1528 1528 1527 1526 1525 1524 1522 1520 1518 1516 1514 1512 1509 1507 1504 1502 1500 1499 1497 1496 1495 1494 1493 1493 1492 1492 1493 1494 1495 1496 1496 1498
1521 1526 1528 1522 1514 1518 1521 1519 1517 1518 1519 1521 1522 1522 1523 1525 1526 1527 1527 1526 1525 1524 1522 1521 1519 1517 1515 1513 1510 1508 1506 1503 1501 1499 1497 1496 1494 1493 1492 1491 1490 1490 1490 1490 1491 1492 1493 1494 1495
1520 1525 1525 1519 1513 1516 1519 1518 1515 1515 1517 1518 1519 1520 1521 1523 1525 1526 1526 1525 1524 1523 1521 1520 1518 1516 1514 1512 1509 1507 1505 1503 1500 1498 1496 1494 1493 1491 1490 1489 1488 1488 1488 1488 1489 1490 1491 1492 1493
1519 1523 1521 1520 1514 1514 1519 1524 1519 1515 1516 1518 1519 1520 1520 1521 1523 1524 1524 1523 1523 1522 1520 1519 1517 1515 1513 1511 1509 1507 1504 1502 1500 1497 1495 1493 1491 1490 1488 1487 1487 1486 1486 1486 1487 1487 1488 1489 1491
1521 1512 1512 1514 1523 1528 1522 1539 1525 1519 1518 1518 1519 1519 1520 1521 1522 1522 1522 1522 1522 1521 1519 1518 1516 1515 1513 1510 1508 1506 1503 1501 1499 1496 1494 1492 1491 1489 1487 1486 1485 1484 1484 1484 1485 1486 1486 1487 1488
1511 1506 1509 1512 1519 1527 1526 1536 1532 1521 1522 1519 1518 1518 1519 1520 1520 1521 1521 1521 1520 1520 1519 1517 1516 1514 1512 1510 1508 1505 1503 1501 1498 1496 1494 1492 1490 1488 1486 1485 1483 1482 1482 1482 1483 1483 1484 1485 1486
1503 1509 1514 1521 1528 1538 1526 1534 1533 1524 1518 1516 1516 1517 1518 1519 1519 1520 1520 1520 1520 1519 1518 1516 1515 1513 1511 1509 1507 1505 1503 1500 1498 1496 1493 1491 1489 1487 1485 1483 1482 1481 1480 1480 1480 1481 1482 1483 1484
1508 1523 1540 1540 1548 1542 1524 1529 1528 1513 1510 1510 1513 1515 1516 1517 1518 1518 1519 1519 1518 1518 1517 1516 1514 1513 1511 1509 1507 1505 1502 1500 1498 1495 1493 1490 1488 1486 1484 1482 1481 1480 1479 1479 1479 1479 1480 1481 1482
1508 1520 1540 1548 1548 1541 1526 1529 1522 1510 1508 1509 1511 1513 1514 1515 1516 1517 1517 1517 1517 1517 1516 1515 1514 1512 1511 1509 1507 1505 1502 1500 1498 1495 1493 1490 1488 1486 1484 1482 1480 1479 1478 1477 1477 1477 1478 1479 1480
1508 1517 1519 1534 1535 1541 1536 1527 1518 1512 1511 1511 1512 1512 1513 1514 1514 1515 1516 1516 1516 1516 1515 1514 1513 1512 1510 1508 1506 1504 1502 1500 1497 1495 1493 1490 1488 1485 1483 1481 1479 1478 1477 1476 1475 1476 1476 1477 1478
1501 1509 1523 1532 1543 1548 1538 1532 1530 1517 1513 1511 1511 1511 1511 1512 1513 1514 1514 1515 1515 1515 1514 1513 1512 1511 1510 1508 1506 1504 1502 1500 1497 1495 1493 1490 1488 1485 1483 1481 1479 1478 1476 1475 1474 1474 1475 1475 1476
1504 1508 1520 1533 1537 1547 1546 1537 1509 1508 1506 1507 1507 1507 1508 1509 1511 1512 1513 1513 1513 1513 1513 1513 1512 1510 1509 1508 1506 1504 1502 1500 1498 1495 1493 1490 1488 1485 1483 1481 1479 1477 1475 1474 1474 1474 1474 1474 1474
1500 1505 1516 1530 1533 1538 1544 1533 1500 1501 1501 1502 1504 1505 1506 1508 1509 1510 1511 1512 1512 1512 1512 1512 1511 1510 1508 1507 1506 1504 1502 1500 1498 1495 1493 1490 1488 1485 1483 1481 1479 1477 1475 1474 1473 1473 1473 1473 1473